Hourly Data Report for August 28, 2020

ALGONQUIN PARK EAST GATE
ONTARIO
Current Station Operator: ECCC - MSC

45°32'00.000" N
78°16'00.000" W
397.00 m
6080192
71581
TNK

Download Data

Hourly Data (August 2020)
Hourly Data Report for August 28, 2020
TIME
LST
Temp Definition
°C
Dew Point Definition
°C
Rel Hum Definition
%
Precip. Amount Definition
mm

Wind Dir Definition
10's deg

Wind Spd Definition
km/h
Visibility Definition
km
Stn Press Definition
kPa
Hmdx Definition


Wind Chill Definition


Weather Definition


00:00 12.5 11.4 93 0.0   0   96.38     LegendNANA
01:00 12.7 11.7 94 0.0   0   96.41     LegendNANA
02:00 12.2 11.1 93 0.0   0   96.33     LegendNANA
03:00 11.9 11.0 94 0.0 25 1   96.42     LegendNANA
04:00 12.4 11.3 93 0.0 0 1   96.42     LegendNANA
05:00 12.5 11.5 93 0.0 25 2   96.45     LegendNANA
06:00 12.5 11.5 93 0.0   0   96.47     LegendNANA
07:00 12.9 11.7 92 0.0   0   96.47     LegendNANA
08:00 13.6 12.1 91 0.0 33 2   96.58     LegendNANA
09:00 14.1 12.0 88 0.0 3 1   96.58     LegendNANA
10:00 14.8 12.1 84 0.0 29 2   96.60     LegendNANA
11:00 15.3 11.4 78 0.0 36 2   96.55     LegendNANA
12:00 16.0 10.9 71 0.0 2 1   96.52     LegendNANA
13:00 16.7 12.3 75 0.0 22 2   96.47     LegendNANA
14:00 16.8 12.3 75 0.0 26 2   96.43     LegendNANA
15:00 17.0 12.7 76 0.0 0 1   96.38     LegendNANA
16:00 17.5 12.9 75 0.0 20 3   96.35     LegendNANA
17:00 17.2 11.7 70 0.0 19 3   96.30     LegendNANA
18:00 15.8 13.7 87 0.0   0   96.23     LegendNANA
19:00 14.6 12.9 89 0.0   0   96.21     LegendNANA
20:00 13.9 12.5 91 0.0   0   96.24     LegendNANA
21:00 13.8 12.4 91 0.0   0   96.12     LegendNANA
22:00 13.6 12.4 92 0.0 21 1   96.05     LegendNANA
23:00 13.5 12.3 93 0.0 12 2   95.94     LegendNANA

Notes on Data Quality.

Legend

  • E = Estimated
  • M = Missing
  • NA = Not Available*
  • [empty] = Indicates an unobserved value
Date modified: